Weather History for Elizabethton, TN

Change the Weather History Date:

Sunday, June 10, 2012

  Actual Average (KTRI) Record (KTRI)
Temperature  
Mean Temperature 69 °F 70 °F  
Max Temperature 78 °F 82 °F 94 °F (1947)
Min Temperature 60 °F 59 °F 42 °F (1977)
Degree Days  
Heating Degree Days 0 0  
Month to date heating degree days 9  
Since 1 June heating degree days 9  
Since 1 July heating degree days 4372  
Cooling Degree Days 4 6  
Month to date cooling degree days 50  
Year to date cooling degree days 123  
Since 1 June cooling degree days 50  
Growing Degree Days 19 (Base 50)    
Moisture  
Dew Point 57 °F    
Average Humidity 66    
Maximum Humidity 88    
Minimum Humidity 38    
Precipitation  
Precipitation 0.00 in 0.12 in 1.32 in (1971)
Month to date precipitation 1.28  
Year to date precipitation 18.67  
Snow  
Snow 0.00 in 0.00 in - ()
Month to date snowfall 0.0  
Since 1 June snowfall 0.0  
Since 1 July snowfall 13.3  
Snow Depth -    
Sea Level Pressure  
Sea Level Pressure 30.13 in    
Wind  
Wind Speed 3 mph (East)    
Max Wind Speed 12 mph    
Max Gust Speed -    
Visibility 10 miles    
Events      
T = Trace of Precipitation, MM = Missing Value Source: NWS Daily Summary

Daily Weather History Graph

Daily Weather History Graph

Search for Another Location

Airport:

Trip Planner

Search our weather history database for the weather conditions in past years. The results will help you decide how hot, cold, wet, or windy it might be!

Date:

Astronomy

Jun. 10, 2012 Rise Set
Actual Time 6:10 AM EDT 8:46 PM EDT
Civil Twilight 5:40 AM EDT 9:16 PM EDT
Nautical Twilight 5:02 AM EDT 9:54 PM EDT
Astronomical Twilight 4:20 AM EDT 10:36 PM EDT
Moon 12:47 AM EDT (6/10) 12:47 PM EDT (6/10)
Length of Visible Light 15h 36m
Length of Day
14h 35m
Waning Gibbous, 58% of the Moon is Illuminated
Jun 10
Waning Gibbous
Jun 11
Last Quarter
Jun 19
New
Jun 26
First Quarter
Jul 3
Full

Hourly Weather History & Observations

Time (EDT) Temp. Dew Point Humidity Pressure Visibility Wind Dir Wind Speed Gust Speed Precip Events Conditions
12:55 AM 64.4 °F 59.0 °F 83% 30.10 in 10.0 mi Calm Calm - N/A   Partly Cloudy
1:15 AM 62.6 °F 59.0 °F 88% 30.10 in 10.0 mi Calm Calm - N/A   Partly Cloudy
1:35 AM 62.6 °F 59.0 °F 88% 30.10 in 10.0 mi Calm Calm - N/A   Clear
1:55 AM 62.6 °F 59.0 °F 88% 30.09 in 10.0 mi Calm Calm - N/A   Partly Cloudy
2:15 AM 62.6 °F 59.0 °F 88% 30.10 in 10.0 mi NE 3.5 mph - N/A   Scattered Clouds
2:35 AM 62.6 °F 59.0 °F 88% 30.09 in 10.0 mi Calm Calm - N/A   Scattered Clouds
2:55 AM 62.6 °F 59.0 °F 88% 30.09 in 10.0 mi Calm Calm - N/A   Clear
3:15 AM 62.6 °F 59.0 °F 88% 30.09 in 10.0 mi Calm Calm - N/A   Clear
3:35 AM 60.8 °F 57.2 °F 88% 30.09 in 10.0 mi Calm Calm - N/A   Clear
3:55 AM 60.8 °F 57.2 °F 88% 30.09 in 10.0 mi Calm Calm - N/A   Clear
4:15 AM 60.8 °F 57.2 °F 88% 30.09 in 10.0 mi Calm Calm - N/A   Clear
4:35 AM 60.8 °F 57.2 °F 88% 30.09 in 10.0 mi Calm Calm - N/A   Clear
4:55 AM 60.8 °F 57.2 °F 88% 30.10 in 10.0 mi Calm Calm - N/A   Clear
5:15 AM 60.8 °F 57.2 °F 88% 30.10 in 10.0 mi Calm Calm - N/A   Clear
5:35 AM 60.8 °F 57.2 °F 88% 30.10 in 10.0 mi Calm Calm - N/A   Clear
5:55 AM 62.6 °F 57.2 °F 82% 30.11 in 10.0 mi NE 3.5 mph - N/A   Clear
6:15 AM 62.6 °F 57.2 °F 82% 30.11 in 10.0 mi Calm Calm - N/A   Clear
6:35 AM 62.6 °F 55.4 °F 77% 30.12 in 10.0 mi ENE 3.5 mph - N/A   Clear
6:55 AM 62.6 °F 55.4 °F 77% 30.13 in 10.0 mi NE 3.5 mph - N/A   Clear
7:15 AM 62.6 °F 55.4 °F 77% 30.13 in 10.0 mi ENE 3.5 mph - N/A   Clear
7:35 AM 64.4 °F 57.2 °F 77% 30.13 in 10.0 mi ENE 4.6 mph - N/A   Clear
7:55 AM 64.4 °F 57.2 °F 77% 30.13 in 10.0 mi Variable 3.5 mph - N/A   Clear
8:15 AM 64.4 °F 57.2 °F 77% 30.14 in 10.0 mi Calm Calm - N/A   Clear
8:35 AM 64.4 °F 57.2 °F 77% 30.14 in 10.0 mi Calm Calm - N/A   Clear
8:55 AM 66.2 °F 59.0 °F 78% 30.14 in 10.0 mi Calm Calm - N/A   Clear
9:15 AM 68.0 °F 59.0 °F 73% 30.14 in 10.0 mi Calm Calm - N/A   Clear
9:35 AM 69.8 °F 60.8 °F 73% 30.14 in 10.0 mi Calm Calm - N/A   Clear
9:55 AM 71.6 °F 59.0 °F 64% 30.14 in 10.0 mi Calm Calm - N/A   Clear
10:15 AM 73.4 °F 57.2 °F 57% 30.14 in 10.0 mi East 5.8 mph - N/A   Clear
10:35 AM 75.2 °F 57.2 °F 53% 30.13 in 10.0 mi ESE 3.5 mph - N/A   Clear
10:55 AM 77.0 °F 57.2 °F 50% 30.14 in 10.0 mi Variable 5.8 mph - N/A   Partly Cloudy
11:15 AM 77.0 °F 55.4 °F 47% 30.14 in 10.0 mi ESE 6.9 mph - N/A   Partly Cloudy
11:35 AM 78.8 °F 55.4 °F 44% 30.14 in 10.0 mi East 8.1 mph - N/A   Clear
11:55 AM 78.8 °F 53.6 °F 42% 30.14 in 10.0 mi East 10.4 mph - N/A   Clear
12:15 PM 77.0 °F 53.6 °F 44% 30.14 in 10.0 mi SE 6.9 mph - N/A   Partly Cloudy
12:35 PM 78.8 °F 53.6 °F 42% 30.14 in 10.0 mi ESE 5.8 mph - N/A   Scattered Clouds
12:55 PM 77.0 °F 53.6 °F 44% 30.15 in 10.0 mi South 8.1 mph - N/A   Scattered Clouds
1:15 PM 77.0 °F 55.4 °F 47% 30.14 in 10.0 mi ESE 6.9 mph - N/A   Scattered Clouds
1:35 PM 75.2 °F 53.6 °F 47% 30.14 in 10.0 mi East 9.2 mph - N/A   Scattered Clouds
1:55 PM 75.2 °F 51.8 °F 44% 30.14 in 10.0 mi East 9.2 mph - N/A   Mostly Cloudy
2:15 PM 75.2 °F 50.0 °F 41% 30.14 in 10.0 mi ESE 8.1 mph - N/A   Overcast
2:35 PM 75.2 °F 48.2 °F 38% 30.14 in 10.0 mi ESE 6.9 mph - N/A   Overcast
2:55 PM 75.2 °F 51.8 °F 44% 30.13 in 10.0 mi Variable 6.9 mph - N/A   Overcast
3:15 PM 73.4 °F 51.8 °F 47% 30.13 in 10.0 mi ESE 4.6 mph - N/A   Overcast
3:35 PM 73.4 °F 51.8 °F 47% 30.13 in 10.0 mi Variable 6.9 mph - N/A   Overcast
3:55 PM 73.4 °F 53.6 °F 50% 30.14 in 10.0 mi East 5.8 mph - N/A   Overcast
4:15 PM 73.4 °F 55.4 °F 53% 30.14 in 10.0 mi East 6.9 mph - N/A   Overcast
4:35 PM 73.4 °F 55.4 °F 53% 30.13 in 10.0 mi East 6.9 mph - N/A   Overcast
4:55 PM 73.4 °F 57.2 °F 57% 30.13 in 10.0 mi ENE 5.8 mph - N/A   Scattered Clouds
5:15 PM 73.4 °F 57.2 °F 57% 30.14 in 10.0 mi ESE 6.9 mph - N/A   Scattered Clouds
5:55 PM 73.4 °F 59.0 °F 61% 30.14 in 10.0 mi ESE 6.9 mph - N/A   Scattered Clouds
6:15 PM 71.6 °F 59.0 °F 64% 30.14 in 10.0 mi SE 10.4 mph - N/A   Mostly Cloudy
6:35 PM 71.6 °F 57.2 °F 60% 30.15 in 10.0 mi ESE 8.1 mph - N/A   Scattered Clouds
6:55 PM 71.6 °F 55.4 °F 57% 30.15 in 10.0 mi East 6.9 mph - N/A   Mostly Cloudy
7:15 PM 71.6 °F 57.2 °F 60% 30.15 in 10.0 mi East 6.9 mph - N/A   Overcast
7:35 PM 69.8 °F 57.2 °F 64% 30.15 in 10.0 mi East 8.1 mph - N/A   Overcast
7:55 PM 69.8 °F 57.2 °F 64% 30.15 in 10.0 mi East 8.1 mph - N/A   Overcast
8:15 PM 69.8 °F 57.2 °F 64% 30.15 in 10.0 mi East 9.2 mph - N/A   Mostly Cloudy
8:35 PM 69.8 °F 57.2 °F 64% 30.15 in 10.0 mi East 6.9 mph - N/A   Overcast
8:55 PM 69.8 °F 57.2 °F 64% 30.15 in 10.0 mi East 6.9 mph - N/A   Mostly Cloudy
9:15 PM 69.8 °F 57.2 °F 64% 30.14 in 10.0 mi East 8.1 mph - N/A   Mostly Cloudy
9:35 PM 69.8 °F 59.0 °F 68% 30.15 in 10.0 mi East 11.5 mph - N/A   Overcast
9:55 PM 69.8 °F 59.0 °F 68% 30.15 in 10.0 mi East 10.4 mph - N/A   Mostly Cloudy
10:15 PM 69.8 °F 59.0 °F 68% 30.15 in 10.0 mi East 9.2 mph - N/A   Mostly Cloudy
10:35 PM 69.8 °F 59.0 °F 68% 30.15 in 10.0 mi East 11.5 mph - N/A   Mostly Cloudy
10:55 PM 68.0 °F 57.2 °F 68% 30.16 in 10.0 mi East 11.5 mph - N/A   Scattered Clouds
11:15 PM 68.0 °F 57.2 °F 68% 30.15 in 10.0 mi East 11.5 mph - N/A   Clear
11:35 PM 68.0 °F 57.2 °F 68% 30.14 in 10.0 mi East 10.4 mph - N/A   Clear
11:55 PM 68.0 °F 57.2 °F 68% 30.13 in 10.0 mi East 10.4 mph - N/A   Clear